Regional Weather Roundup
Issued by NWS

Home | Current Version | Previous Version | Text Only | Print | Product List | Glossary On
Versions: 1 2 3 4 5 6 7 8 9 10 11 12 13 14 15 16 17 18 19 20 21 22 23 24 25 26 27 28 29 30 31 32 33 34 35 36 37 38 39 40 41 42 43 44 45 46 47 48 49 50
000
ASUS43 KTOP 222159
RWRKS

WEATHER ROUNDUP FOR KANSAS
NATIONAL WEATHER SERVICE GOODLAND KS
500 PM CDT WED MAR 22 2017

NOTE:  "FAIR" INDICATES FEW OR NO CLOUDS BELOW 12,000 FEET WITH NO
SIGNIFICANT WEATHER AND/OR OBSTRUCTIONS TO VISIBILITY.

KSZ001>006-013>018-027>032-041>047-222300-
NORTHWEST KANSAS

CITY           SKY/WX    TMP DP  RH WIND       PRES   REMARKS
GOODLAND       CLOUDY    59  37  44 S21       29.97F
HAYS             N/A     55  33  43 SE14      30.08F
HILL CITY      CLOUDY    52  32  46 S17G23    30.08F
RUSSELL        CLOUDY    56  33  42 SE16      30.08F
$$

KSZ061>065-074>080-084>089-222300-
SOUTHWEST KANSAS

CITY           SKY/WX    TMP DP  RH WIND       PRES   REMARKS
DODGE CITY     SUNNY     62  37  39 SE15G24   30.05F
ELKHART          N/A     68  41  37 MISG        N/A
GARDEN CITY    CLOUDY    61  39  44 S20G26    30.02F
GREAT BEND     CLOUDY    54  36  50 SE14      30.10F
LIBERAL        SUNNY     68  41  37 S14G22    30.02F
$$

KSZ066>073-081>083-090>101-222300-
SOUTHEAST KANSAS

CITY           SKY/WX    TMP DP  RH WIND       PRES   REMARKS
CHANUTE        CLOUDY    58  31  35 SE18      30.16F
COFFEYVILLE    CLOUDY    60  39  45 E13       30.16F
HUTCHINSON     CLOUDY    55  33  43 SE12      30.13F
MEDICINE LODGE   N/A     56  36  47 SE9       30.10F
NEWTON         CLOUDY    55  33  43 SE14      30.15S
PARSONS        CLOUDY    58  34  40 VRB6      30.17F
WICHITA INTL   CLOUDY    57  38  48 SE13      30.13S
WICHITA JABRA  CLOUDY    56  35  45 E14       30.14S
WINFIELD       CLOUDY    62  43  49 E10       30.12F
$$

KSZ007>012-019>026-033>040-048>060-102>105-222300-
NORTHEAST KANSAS

CITY           SKY/WX    TMP DP  RH WIND       PRES   REMARKS
CONCORDIA      CLOUDY    55  24  30 SE17G24   30.13F
EMPORIA        CLOUDY    56  31  38 E16G23    30.16F
LAWRENCE       CLOUDY    58  26  29 E17       30.21F
MANHATTAN      CLOUDY    57  24  28 SE14      30.17S
OLATHE IND     CLOUDY    55  29  36 E13G24    30.21F
OLATHE EXE     PTSUNNY   54  30  40 SE16G22   30.21F
SALINA         CLOUDY    58  31  35 SE14      30.14F
TOPEKA BILLARD CLOUDY    57  26  30 E15       30.18F
TOPEKA FORBES  CLOUDY    57  26  30 SE15G22   30.18F
$$



USA.gov is the U.S. government's official web portal to all federal, state and local government web resources and services.